Time,TemperatureF,DewpointF,PressureIn,WindDirection,WindDirectionDegrees,WindSpeedMPH,WindSpeedGustMPH,Humidity,HourlyPrecipIn,Conditions,Clouds,dailyrainin,SoftwareType,DateUTC
2013-05-18 00:03:00,61.0,44.0,30.14,East,79,0.0,3.0,53,0.00,,,0.00,,2013-05-18 04:03:00,
2013-05-18 00:12:00,61.0,44.0,30.14,East,79,0.0,3.0,53,0.00,,,0.00,,2013-05-18 04:12:00,
2013-05-18 00:23:00,60.0,42.0,30.14,ESE,103,1.0,4.0,52,0.00,,,0.00,,2013-05-18 04:23:00,
2013-05-18 00:33:00,60.0,43.0,30.14,East,81,1.0,4.0,53,0.00,,,0.00,,2013-05-18 04:33:00,
2013-05-18 00:43:00,60.0,43.0,30.14,East,81,1.0,4.0,53,0.00,,,0.00,,2013-05-18 04:43:00,
2013-05-18 00:52:00,60.0,42.0,30.14,East,91,0.0,7.0,51,0.00,,,0.00,,2013-05-18 04:52:00,
2013-05-18 01:02:00,59.0,41.0,30.14,ENE,77,1.0,3.0,52,0.00,,,0.00,,2013-05-18 05:02:00,
2013-05-18 01:13:00,59.0,41.0,30.14,ENE,77,1.0,3.0,52,0.00,,,0.00,,2013-05-18 05:13:00,
2013-05-18 01:22:00,59.0,42.0,30.14,East,82,0.0,3.0,53,0.00,,,0.00,,2013-05-18 05:22:00,
2013-05-18 01:32:00,59.0,43.0,30.14,East,80,0.0,1.0,55,0.00,,,0.00,,2013-05-18 05:32:00,
2013-05-18 01:42:00,59.0,43.0,30.14,East,80,0.0,1.0,55,0.00,,,0.00,,2013-05-18 05:42:00,
2013-05-18 01:52:00,58.0,43.0,30.14,ENE,70,1.0,3.0,57,0.00,,,0.00,,2013-05-18 05:52:00,
2013-05-18 02:02:00,58.0,43.0,30.13,East,79,0.0,3.0,58,0.00,,,0.00,,2013-05-18 06:02:00,
2013-05-18 02:11:00,58.0,43.0,30.13,East,79,0.0,3.0,58,0.00,,,0.00,,2013-05-18 06:11:00,
2013-05-18 02:22:00,58.0,44.0,30.13,East,79,0.0,2.0,59,0.00,,,0.00,,2013-05-18 06:22:00,
2013-05-18 02:32:00,58.0,44.0,30.13,East,84,0.0,2.0,60,0.00,,,0.00,,2013-05-18 06:32:00,
2013-05-18 02:42:00,58.0,44.0,30.13,East,84,0.0,2.0,60,0.00,,,0.00,,2013-05-18 06:42:00,
2013-05-18 02:52:00,58.0,45.0,30.14,East,84,0.0,0.0,61,0.00,,,0.00,,2013-05-18 06:52:00,
2013-05-18 03:01:00,57.0,45.0,30.13,East,79,0.0,0.0,63,0.00,,,0.00,,2013-05-18 07:01:00,
2013-05-18 03:12:00,57.0,45.0,30.13,East,79,0.0,0.0,63,0.00,,,0.00,,2013-05-18 07:12:00,
2013-05-18 03:21:00,57.0,45.0,30.12,ENE,77,0.0,0.0,65,0.00,,,0.00,,2013-05-18 07:21:00,
2013-05-18 03:32:00,57.0,45.0,30.13,East,89,0.0,0.0,65,0.00,,,0.00,,2013-05-18 07:32:00,
2013-05-18 03:42:00,57.0,45.0,30.13,East,89,0.0,0.0,65,0.00,,,0.00,,2013-05-18 07:42:00,
2013-05-18 03:52:00,56.0,46.0,30.12,East,89,0.0,0.0,68,0.00,,,0.00,,2013-05-18 07:52:00,
2013-05-18 04:02:00,56.0,46.0,30.12,East,89,0.0,0.0,69,0.00,,,0.00,,2013-05-18 08:02:00,
2013-05-18 04:11:00,56.0,46.0,30.12,East,89,0.0,0.0,69,0.00,,,0.00,,2013-05-18 08:11:00,
2013-05-18 04:21:00,56.0,46.0,30.12,East,89,0.0,0.0,69,0.00,,,0.00,,2013-05-18 08:21:00,
2013-05-18 04:32:00,56.0,47.0,30.12,East,89,0.0,0.0,71,0.00,,,0.00,,2013-05-18 08:32:00,
2013-05-18 04:42:00,56.0,47.0,30.12,East,89,0.0,0.0,71,0.00,,,0.00,,2013-05-18 08:42:00,
2013-05-18 04:52:00,55.0,46.0,30.12,East,89,0.0,0.0,71,0.00,,,0.00,,2013-05-18 08:52:00,
2013-05-18 05:02:00,55.0,46.0,30.13,East,89,0.0,0.0,71,0.00,,,0.00,,2013-05-18 09:02:00,
2013-05-18 05:11:00,55.0,46.0,30.13,East,89,0.0,0.0,71,0.00,,,0.00,,2013-05-18 09:11:00,
2013-05-18 05:22:00,55.0,46.0,30.12,East,89,0.0,0.0,72,0.00,,,0.00,,2013-05-18 09:22:00,
2013-05-18 05:33:00,55.0,46.0,30.13,East,87,0.0,1.0,72,0.00,,,0.00,,2013-05-18 09:33:00,
2013-05-18 05:43:00,55.0,46.0,30.13,East,87,0.0,1.0,72,0.00,,,0.00,,2013-05-18 09:43:00,
2013-05-18 05:53:00,55.0,46.0,30.13,East,89,0.0,1.0,72,0.00,,,0.00,,2013-05-18 09:53:00,
2013-05-18 06:03:00,55.0,46.0,30.13,East,84,1.0,3.0,71,0.00,,,0.00,,2013-05-18 10:03:00,
2013-05-18 06:12:00,55.0,46.0,30.13,East,84,1.0,3.0,71,0.00,,,0.00,,2013-05-18 10:12:00,
2013-05-18 06:23:00,55.0,46.0,30.15,East,89,0.0,1.0,71,0.00,,,0.00,,2013-05-18 10:23:00,
2013-05-18 06:33:00,55.0,45.0,30.15,East,91,0.0,3.0,69,0.00,,,0.00,,2013-05-18 10:33:00,
2013-05-18 06:42:00,55.0,45.0,30.15,East,91,0.0,3.0,69,0.00,,,0.00,,2013-05-18 10:42:00,
2013-05-18 06:52:00,55.0,45.0,30.15,ENE,77,0.0,1.0,70,0.00,,,0.00,,2013-05-18 10:52:00,
2013-05-18 07:03:00,56.0,46.0,30.16,East,85,0.0,1.0,70,0.00,,,0.00,,2013-05-18 11:03:00,
2013-05-18 07:12:00,56.0,46.0,30.16,East,85,0.0,1.0,70,0.00,,,0.00,,2013-05-18 11:12:00,
2013-05-18 07:22:00,56.0,46.0,30.15,East,100,0.0,1.0,70,0.00,,,0.00,,2013-05-18 11:22:00,
2013-05-18 07:33:00,56.0,46.0,30.14,East,86,0.0,0.0,69,0.00,,,0.00,,2013-05-18 11:33:00,
2013-05-18 07:42:00,56.0,46.0,30.14,East,86,0.0,0.0,69,0.00,,,0.00,,2013-05-18 11:42:00,
2013-05-18 07:52:00,56.0,46.0,30.14,ENE,76,0.0,4.0,69,0.00,,,0.00,,2013-05-18 11:52:00,
2013-05-18 08:02:00,57.0,47.0,30.14,East,81,1.0,2.0,68,0.00,,,0.00,,2013-05-18 12:02:00,
2013-05-18 08:12:00,57.0,47.0,30.14,East,81,1.0,2.0,68,0.00,,,0.00,,2013-05-18 12:12:00,
2013-05-18 08:23:00,57.0,46.0,30.14,ENE,75,0.0,3.0,67,0.00,,,0.00,,2013-05-18 12:23:00,
2013-05-18 08:33:00,58.0,47.0,30.14,East,93,0.0,0.0,66,0.00,,,0.00,,2013-05-18 12:33:00,
2013-05-18 08:42:00,58.0,47.0,30.14,East,93,0.0,0.0,66,0.00,,,0.00,,2013-05-18 12:42:00,
2013-05-18 08:52:00,59.0,47.0,30.14,East,82,1.0,3.0,65,0.00,,,0.00,,2013-05-18 12:52:00,
2013-05-18 09:01:00,60.0,47.0,30.14,East,87,1.0,4.0,61,0.00,,,0.00,,2013-05-18 13:01:00,
2013-05-18 09:11:00,60.0,47.0,30.14,East,87,1.0,4.0,61,0.00,,,0.00,,2013-05-18 13:11:00,
2013-05-18 09:21:00,61.0,47.0,30.14,East,83,0.0,3.0,60,0.00,,,0.00,,2013-05-18 13:21:00,
2013-05-18 09:33:00,62.0,47.0,30.14,ENE,73,1.0,6.0,59,0.00,,,0.00,,2013-05-18 13:33:00,
2013-05-18 09:43:00,62.0,47.0,30.14,ENE,73,1.0,6.0,59,0.00,,,0.00,,2013-05-18 13:43:00,
2013-05-18 09:53:00,63.0,48.0,30.14,East,82,0.0,3.0,57,0.00,,,0.00,,2013-05-18 13:53:00,
2013-05-18 10:03:00,64.0,47.0,30.13,ENE,76,1.0,5.0,54,0.00,,,0.00,,2013-05-18 14:03:00,
2013-05-18 10:12:00,64.0,47.0,30.13,ENE,76,1.0,5.0,54,0.00,,,0.00,,2013-05-18 14:12:00,
2013-05-18 10:22:00,65.0,46.0,30.13,East,87,1.0,5.0,51,0.00,,,0.00,,2013-05-18 14:22:00,
2013-05-18 10:33:00,66.0,47.0,30.12,East,86,1.0,4.0,50,0.00,,,0.00,,2013-05-18 14:33:00,
2013-05-18 10:42:00,66.0,47.0,30.12,East,86,1.0,4.0,50,0.00,,,0.00,,2013-05-18 14:42:00,
2013-05-18 10:54:00,68.0,48.0,30.12,East,91,0.0,4.0,48,0.00,,,0.00,,2013-05-18 14:54:00,
2013-05-18 11:03:00,70.0,47.0,30.13,West,260,0.0,3.0,44,0.00,,,0.00,,2013-05-18 15:03:00,
2013-05-18 11:13:00,70.0,47.0,30.13,West,260,0.0,3.0,44,0.00,,,0.00,,2013-05-18 15:13:00,
2013-05-18 11:23:00,69.0,46.0,30.13,ESE,108,1.0,3.0,44,0.00,,,0.00,,2013-05-18 15:23:00,
2013-05-18 11:33:00,70.0,47.0,30.13,ENE,65,2.0,6.0,44,0.00,,,0.00,,2013-05-18 15:33:00,
2013-05-18 11:43:00,70.0,47.0,30.13,ENE,65,2.0,6.0,44,0.00,,,0.00,,2013-05-18 15:43:00,
2013-05-18 11:54:00,71.0,47.0,30.12,East,100,0.0,5.0,42,0.00,,,0.00,,2013-05-18 15:54:00,
2013-05-18 12:03:00,72.0,46.0,30.12,East,82,1.0,4.0,40,0.00,,,0.00,,2013-05-18 16:03:00,
2013-05-18 12:13:00,72.0,46.0,30.12,East,82,1.0,4.0,40,0.00,,,0.00,,2013-05-18 16:13:00,
2013-05-18 12:22:00,73.0,48.0,30.12,NE,48,0.0,4.0,41,0.00,,,0.00,,2013-05-18 16:22:00,
2013-05-18 12:33:00,74.0,48.0,30.12,ESE,117,1.0,4.0,40,0.00,,,0.00,,2013-05-18 16:33:00,
2013-05-18 12:42:00,74.0,48.0,30.12,ESE,117,1.0,4.0,40,0.00,,,0.00,,2013-05-18 16:42:00,
2013-05-18 12:52:00,73.0,48.0,30.12,East,93,1.0,6.0,41,0.00,,,0.00,,2013-05-18 16:52:00,
2013-05-18 13:02:00,74.0,48.0,30.11,ENE,77,2.0,5.0,40,0.00,,,0.00,,2013-05-18 17:02:00,
2013-05-18 13:12:00,74.0,48.0,30.11,ENE,77,2.0,5.0,40,0.00,,,0.00,,2013-05-18 17:12:00,
2013-05-18 13:22:00,75.0,49.0,30.11,NW,316,2.0,-999.0,40,-99.99,,,-99.99,,2013-05-18 17:22:00,
2013-05-18 13:42:00,76.0,50.0,30.10,SSE,148,0.0,7.0,40,0.00,,,0.00,,2013-05-18 17:42:00,
2013-05-18 13:52:00,77.0,48.0,30.10,East,79,2.0,4.0,36,0.00,,,0.00,,2013-05-18 17:52:00,
2013-05-18 14:01:00,78.0,49.0,30.09,ENE,65,2.0,5.0,36,0.00,,,0.00,,2013-05-18 18:01:00,
2013-05-18 14:12:00,78.0,49.0,30.09,ENE,65,2.0,5.0,36,0.00,,,0.00,,2013-05-18 18:12:00,
2013-05-18 14:21:00,78.0,48.0,30.09,East,100,0.0,6.0,35,0.00,,,0.00,,2013-05-18 18:21:00,
2013-05-18 14:32:00,79.0,48.0,30.08,ENE,73,1.0,4.0,34,0.00,,,0.00,,2013-05-18 18:32:00,
2013-05-18 14:42:00,79.0,48.0,30.08,ENE,73,1.0,4.0,34,0.00,,,0.00,,2013-05-18 18:42:00,
2013-05-18 14:52:00,79.0,49.0,30.08,East,87,2.0,6.0,35,0.00,,,0.00,,2013-05-18 18:52:00,
2013-05-18 15:02:00,79.0,50.0,30.08,East,80,2.0,5.0,36,0.00,,,0.00,,2013-05-18 19:02:00,
2013-05-18 15:12:00,79.0,50.0,30.08,East,80,2.0,5.0,36,0.00,,,0.00,,2013-05-18 19:12:00,
2013-05-18 15:22:00,79.0,50.0,30.07,ESE,105,1.0,4.0,36,0.00,,,0.00,,2013-05-18 19:22:00,
2013-05-18 15:32:00,79.0,50.0,30.06,ESE,105,1.0,4.0,36,0.00,,,0.00,,2013-05-18 19:32:00,
2013-05-18 15:42:00,79.0,50.0,30.06,ESE,105,1.0,4.0,36,0.00,,,0.00,,2013-05-18 19:42:00,
2013-05-18 15:52:00,78.0,49.0,30.06,East,81,1.0,6.0,36,0.00,,,0.00,,2013-05-18 19:52:00,
2013-05-18 16:02:00,79.0,52.0,30.06,ESE,102,2.0,5.0,39,0.00,,,0.00,,2013-05-18 20:02:00,
2013-05-18 16:11:00,79.0,52.0,30.06,ESE,102,2.0,5.0,39,0.00,,,0.00,,2013-05-18 20:11:00,
2013-05-18 16:22:00,79.0,52.0,30.06,NE,41,0.0,4.0,39,0.00,,,0.00,,2013-05-18 20:22:00,
2013-05-18 16:32:00,80.0,51.0,30.05,ENE,76,2.0,6.0,37,0.00,,,0.00,,2013-05-18 20:32:00,
2013-05-18 16:42:00,80.0,51.0,30.05,ENE,76,2.0,6.0,37,0.00,,,0.00,,2013-05-18 20:42:00,
2013-05-18 16:52:00,80.0,52.0,30.05,SSW,207,1.0,5.0,38,0.00,,,0.00,,2013-05-18 20:52:00,
2013-05-18 17:01:00,80.0,53.0,30.05,NE,49,1.0,5.0,39,0.00,,,0.00,,2013-05-18 21:01:00,
2013-05-18 17:12:00,80.0,53.0,30.05,NE,49,1.0,5.0,39,0.00,,,0.00,,2013-05-18 21:12:00,
2013-05-18 17:21:00,80.0,52.0,30.04,ENE,75,0.0,4.0,38,0.00,,,0.00,,2013-05-18 21:21:00,
2013-05-18 17:33:00,80.0,51.0,30.04,North,353,0.0,5.0,37,0.00,,,0.00,,2013-05-18 21:33:00,
2013-05-18 17:43:00,80.0,51.0,30.04,North,353,0.0,5.0,37,0.00,,,0.00,,2013-05-18 21:43:00,
2013-05-18 17:53:00,80.0,51.0,30.04,East,95,2.0,4.0,37,0.00,,,0.00,,2013-05-18 21:53:00,
2013-05-18 18:03:00,79.0,50.0,30.03,NNE,24,1.0,5.0,37,0.00,,,0.00,,2013-05-18 22:03:00,
2013-05-18 18:12:00,79.0,50.0,30.03,NNE,24,1.0,5.0,37,0.00,,,0.00,,2013-05-18 22:12:00,
2013-05-18 18:23:00,79.0,51.0,30.03,NE,37,2.0,5.0,38,0.00,,,0.00,,2013-05-18 22:23:00,
2013-05-18 18:33:00,78.0,48.0,30.03,East,95,1.0,5.0,35,0.00,,,0.00,,2013-05-18 22:33:00,
2013-05-18 18:42:00,78.0,49.0,30.02,East,84,1.0,5.0,36,0.00,,,0.00,,2013-05-18 22:42:00,
2013-05-18 18:53:00,78.0,49.0,30.02,East,84,1.0,5.0,36,0.00,,,0.00,,2013-05-18 22:53:00,
2013-05-18 19:01:00,78.0,48.0,30.03,ESE,102,0.0,4.0,35,0.00,,,0.00,,2013-05-18 23:01:00,
2013-05-18 19:12:00,78.0,48.0,30.03,ESE,102,0.0,4.0,35,0.00,,,0.00,,2013-05-18 23:12:00,
2013-05-18 19:22:00,78.0,50.0,30.03,East,82,0.0,3.0,37,0.00,,,0.00,,2013-05-18 23:22:00,
2013-05-18 19:32:00,77.0,47.0,30.03,ENE,65,1.0,2.0,35,0.00,,,0.00,,2013-05-18 23:32:00,
2013-05-18 19:42:00,77.0,47.0,30.03,ENE,65,1.0,2.0,35,0.00,,,0.00,,2013-05-18 23:42:00,
2013-05-18 19:53:00,76.0,49.0,30.03,East,91,0.0,3.0,38,0.00,,,0.00,,2013-05-18 23:53:00,
2013-05-18 20:01:00,75.0,48.0,30.04,ENE,78,0.0,2.0,38,0.00,,,0.00,,2013-05-19 00:01:00,
2013-05-18 20:12:00,75.0,48.0,30.04,ENE,78,0.0,2.0,38,0.00,,,0.00,,2013-05-19 00:12:00,
2013-05-18 20:21:00,74.0,45.0,30.04,East,83,0.0,2.0,36,0.00,,,0.00,,2013-05-19 00:21:00,
2013-05-18 20:32:00,73.0,45.0,30.04,East,93,0.0,2.0,37,0.00,,,0.00,,2013-05-19 00:32:00,
2013-05-18 20:41:00,73.0,45.0,30.04,East,93,0.0,2.0,37,0.00,,,0.00,,2013-05-19 00:41:00,
2013-05-18 20:52:00,72.0,45.0,30.04,East,89,0.0,2.0,38,0.00,,,0.00,,2013-05-19 00:52:00,
2013-05-18 21:01:00,71.0,45.0,30.04,NE,51,0.0,1.0,39,0.00,,,0.00,,2013-05-19 01:01:00,
2013-05-18 21:11:00,71.0,45.0,30.04,NE,51,0.0,1.0,39,0.00,,,0.00,,2013-05-19 01:11:00,
2013-05-18 21:22:00,70.0,45.0,30.04,ENE,76,0.0,1.0,41,0.00,,,0.00,,2013-05-19 01:22:00,
2013-05-18 21:32:00,69.0,46.0,30.04,ENE,75,0.0,1.0,43,0.00,,,0.00,,2013-05-19 01:32:00,
2013-05-18 21:42:00,69.0,46.0,30.04,ENE,75,0.0,1.0,43,0.00,,,0.00,,2013-05-19 01:42:00,
2013-05-18 21:52:00,68.0,47.0,30.04,ENE,75,0.0,0.0,47,0.00,,,0.00,,2013-05-19 01:52:00,
2013-05-18 22:01:00,66.0,47.0,30.05,ENE,75,0.0,0.0,51,0.00,,,0.00,,2013-05-19 02:01:00,
2013-05-18 22:11:00,66.0,47.0,30.05,ENE,75,0.0,0.0,51,0.00,,,0.00,,2013-05-19 02:11:00,
2013-05-18 22:22:00,65.0,48.0,30.05,ENE,75,0.0,0.0,54,0.00,,,0.00,,2013-05-19 02:22:00,
2013-05-18 22:32:00,64.0,48.0,30.05,ENE,61,0.0,1.0,57,0.00,,,0.00,,2013-05-19 02:32:00,
2013-05-18 22:42:00,64.0,48.0,30.05,ENE,61,0.0,1.0,57,0.00,,,0.00,,2013-05-19 02:42:00,
2013-05-18 22:52:00,64.0,49.0,30.06,ENE,61,0.0,0.0,59,0.00,,,0.00,,2013-05-19 02:52:00,
2013-05-18 23:01:00,63.0,50.0,30.06,ENE,61,0.0,0.0,63,0.00,,,0.00,,2013-05-19 03:01:00,
2013-05-18 23:11:00,63.0,50.0,30.06,ENE,61,0.0,0.0,63,0.00,,,0.00,,2013-05-19 03:11:00,
2013-05-18 23:22:00,62.0,50.0,30.05,ENE,61,0.0,1.0,64,0.00,,,0.00,,2013-05-19 03:22:00,
2013-05-18 23:33:00,61.0,49.0,30.05,ENE,61,0.0,0.0,65,0.00,,,0.00,,2013-05-19 03:33:00,
2013-05-18 23:42:00,61.0,49.0,30.05,ENE,61,0.0,0.0,65,0.00,,,0.00,,2013-05-19 03:42:00,
2013-05-18 23:53:00,61.0,49.0,30.05,ENE,61,0.0,0.0,65,0.00,,,0.00,,2013-05-19 03:53:00,